GEFSMW_prec_meanprecacc_114.txt.gz
Total_Precipitation_Accumulation
1.48 1.82 2.13 2.52 2.80 3.11 3.54 4.02 4.47 4.36 4.01 3.56 3.11 2.81 2.44 2.18 1.93 1.62 1.40 1.28 1.23 1.26 1.42 1.27 1.36 1.42 1.36 1.28 1.30 1.38 1.41 1.24 1.49 1.57 1.11 0.81 0.72 0.66 0.57 0.57 0.56 0.51 0.59
1.35 1.63 2.07 2.39 2.65 2.97 3.23 3.42 3.29 2.89 2.64 2.49 2.29 1.96 1.88 1.82 1.75 1.63 1.41 1.18 1.15 1.12 1.07 1.06 1.07 1.12 1.16 1.06 1.03 1.16 1.14 0.97 1.24 1.34 1.18 0.79 0.61 0.52 0.44 0.47 0.46 0.50 0.64
1.14 1.39 1.82 2.05 2.12 2.34 2.45 2.35 2.06 1.65 1.49 1.46 1.32 1.40 1.58 1.69 1.69 1.69 1.58 1.38 1.28 1.23 1.18 1.08 1.00 0.96 0.99 0.99 0.97 1.05 1.06 0.94 0.98 1.11 1.27 0.99 0.66 0.52 0.38 0.39 0.46 0.59 0.70
0.82 1.08 1.35 1.41 1.49 1.57 1.48 1.41 1.27 1.07 0.94 0.91 0.91 0.93 1.09 1.35 1.51 1.66 1.69 1.68 1.56 1.40 1.28 1.15 0.98 0.84 0.81 0.86 0.79 0.86 0.98 0.99 0.89 0.89 0.96 0.99 1.01 0.91 0.55 0.34 0.37 0.56 0.66
0.77 0.92 0.93 0.90 0.95 0.98 0.94 0.89 0.89 0.82 0.80 0.81 0.89 0.87 0.76 0.77 0.74 0.81 0.95 1.09 1.19 1.14 0.98 0.92 0.86 0.77 0.70 0.70 0.74 0.85 0.94 0.96 0.88 0.88 0.87 0.92 1.06 1.07 0.93 0.60 0.52 0.57 0.56
0.56 0.65 0.65 0.64 0.64 0.66 0.68 0.76 0.81 0.82 0.79 0.81 0.81 0.79 0.73 0.73 0.69 0.69 0.72 0.69 0.72 0.73 0.69 0.67 0.70 0.69 0.67 0.68 0.68 0.74 0.84 0.92 0.96 0.97 1.01 1.06 1.07 1.13 1.22 0.99 0.82 0.75 0.66
0.39 0.36 0.36 0.37 0.38 0.38 0.40 0.53 0.60 0.62 0.59 0.59 0.62 0.62 0.68 0.69 0.63 0.56 0.52 0.50 0.48 0.51 0.55 0.58 0.63 0.63 0.68 0.74 0.80 0.81 0.82 0.89 1.00 1.03 1.11 1.19 1.18 1.24 1.34 1.28 1.09 0.99 0.96
0.22 0.18 0.18 0.18 0.22 0.25 0.25 0.30 0.43 0.44 0.44 0.42 0.48 0.59 0.74 0.78 0.73 0.72 0.59 0.54 0.52 0.50 0.53 0.61 0.67 0.66 0.67 0.68 0.78 0.83 0.90 0.97 1.01 1.00 1.16 1.25 1.19 1.31 1.44 1.47 1.43 1.30 1.29
0.11 0.10 0.11 0.12 0.13 0.15 0.16 0.17 0.25 0.35 0.41 0.38 0.41 0.44 0.47 0.54 0.55 0.56 0.56 0.53 0.59 0.54 0.59 0.67 0.76 0.77 0.77 0.79 0.83 0.85 0.95 1.13 1.20 1.18 1.23 1.29 1.27 1.31 1.44 1.56 1.60 1.58 1.52
0.07 0.07 0.05 0.06 0.08 0.11 0.15 0.20 0.19 0.28 0.48 0.55 0.53 0.41 0.32 0.30 0.37 0.46 0.52 0.55 0.59 0.60 0.64 0.69 0.72 0.76 0.77 0.79 0.84 0.90 1.00 1.16 1.24 1.32 1.40 1.40 1.34 1.38 1.45 1.50 1.62 1.73 1.74
0.04 0.03 0.03 0.04 0.07 0.10 0.15 0.28 0.34 0.41 0.56 0.70 0.73 0.60 0.42 0.34 0.36 0.38 0.38 0.41 0.49 0.59 0.67 0.64 0.57 0.54 0.58 0.71 0.86 0.92 1.01 1.10 1.14 1.21 1.23 1.22 1.26 1.31 1.26 1.34 1.47 1.63 1.77
0.02 0.02 0.02 0.02 0.04 0.07 0.17 0.41 0.67 0.94 1.02 1.10 1.16 1.00 0.62 0.40 0.33 0.27 0.26 0.34 0.46 0.56 0.62 0.59 0.53 0.51 0.57 0.70 0.85 1.00 1.20 1.33 1.30 1.22 1.15 1.07 1.14 1.23 1.24 1.33 1.36 1.42 1.64
0.02 0.02 0.01 0.02 0.02 0.04 0.10 0.24 0.33 0.59 0.82 0.99 1.09 0.88 0.49 0.30 0.23 0.21 0.25 0.39 0.51 0.56 0.57 0.57 0.62 0.72 0.80 0.92 1.04 1.10 1.24 1.29 1.20 1.16 1.09 1.02 1.02 1.07 1.17 1.28 1.32 1.32 1.39
0.02 0.02 0.02 0.02 0.03 0.04 0.05 0.15 0.21 0.24 0.34 0.59 0.74 0.61 0.37 0.26 0.23 0.23 0.27 0.32 0.36 0.42 0.52 0.64 0.81 0.92 0.98 1.01 1.08 1.07 1.05 1.05 0.96 0.90 0.86 0.90 1.01 1.07 1.07 1.06 1.10 1.15 1.25
0.04 0.04 0.04 0.04 0.04 0.05 0.06 0.12 0.18 0.21 0.29 0.51 0.65 0.54 0.37 0.29 0.23 0.20 0.21 0.26 0.35 0.40 0.53 0.68 0.78 0.77 0.79 0.84 0.91 0.93 0.90 0.86 0.80 0.72 0.59 0.59 0.75 0.90 0.93 0.87 0.91 0.96 1.05
0.06 0.06 0.06 0.06 0.07 0.08 0.08 0.08 0.12 0.17 0.27 0.45 0.63 0.61 0.46 0.33 0.24 0.22 0.25 0.36 0.42 0.48 0.57 0.63 0.63 0.60 0.46 0.41 0.43 0.50 0.58 0.64 0.64 0.57 0.52 0.52 0.53 0.56 0.58 0.62 0.67 0.74 0.83
0.12 0.09 0.07 0.07 0.08 0.10 0.12 0.13 0.13 0.15 0.28 0.44 0.57 0.62 0.55 0.45 0.38 0.31 0.34 0.42 0.48 0.54 0.61 0.60 0.60 0.60 0.57 0.39 0.28 0.27 0.36 0.44 0.46 0.47 0.51 0.42 0.37 0.41 0.42 0.42 0.40 0.42 0.48
0.12 0.14 0.10 0.09 0.09 0.09 0.13 0.16 0.19 0.22 0.31 0.45 0.59 0.64 0.62 0.60 0.60 0.53 0.51 0.54 0.58 0.62 0.66 0.63 0.65 0.69 0.65 0.49 0.36 0.28 0.26 0.34 0.38 0.42 0.46 0.47 0.48 0.49 0.50 0.48 0.46 0.40 0.38
0.11 0.13 0.14 0.12 0.13 0.14 0.16 0.19 0.23 0.30 0.39 0.49 0.64 0.72 0.75 0.78 0.76 0.74 0.74 0.78 0.82 0.77 0.74 0.76 0.79 0.82 0.82 0.64 0.42 0.31 0.33 0.43 0.45 0.47 0.49 0.50 0.51 0.50 0.38 0.41 0.44 0.44 0.46
0.12 0.12 0.12 0.13 0.15 0.17 0.19 0.28 0.37 0.49 0.62 0.70 0.79 0.93 1.07 1.16 1.16 1.11 1.04 1.00 1.05 0.97 0.91 0.86 0.86 0.87 0.92 0.82 0.50 0.35 0.44 0.61 0.65 0.68 0.64 0.51 0.44 0.39 0.29 0.35 0.47 0.45 0.45
0.12 0.13 0.12 0.13 0.16 0.17 0.25 0.38 0.52 0.68 0.76 0.85 0.92 1.09 1.33 1.42 1.32 1.27 1.20 1.13 1.14 1.16 1.14 1.03 1.00 1.02 1.05 0.97 0.61 0.48 0.59 0.75 0.84 0.83 0.78 0.70 0.50 0.35 0.30 0.31 0.40 0.42 0.46
0.14 0.14 0.15 0.14 0.18 0.24 0.37 0.55 0.68 0.73 0.81 0.96 1.12 1.29 1.47 1.39 1.23 1.37 1.34 1.32 1.38 1.36 1.30 1.24 1.15 1.12 1.12 0.99 0.71 0.48 0.56 0.74 0.93 0.99 0.94 0.84 0.60 0.42 0.35 0.33 0.33 0.30 0.32
0.15 0.18 0.21 0.26 0.27 0.37 0.56 0.76 0.82 0.88 0.92 0.98 1.12 1.26 1.35 1.44 1.48 1.47 1.43 1.44 1.45 1.43 1.32 1.27 1.21 1.16 1.20 1.17 0.77 0.55 0.60 0.70 0.85 1.05 1.04 0.85 0.66 0.55 0.44 0.40 0.41 0.37 0.36
0.15 0.18 0.24 0.33 0.43 0.54 0.68 0.79 0.82 0.83 0.83 0.84 0.88 1.00 1.19 1.31 1.42 1.61 1.64 1.59 1.50 1.47 1.42 1.32 1.25 1.21 1.26 1.29 1.02 0.74 0.71 0.77 0.84 0.97 1.03 0.91 0.76 0.67 0.58 0.52 0.50 0.48 0.48
0.18 0.24 0.31 0.40 0.48 0.61 0.72 0.74 0.77 0.85 0.91 0.90 0.90 0.94 1.04 1.23 1.34 1.48 1.56 1.54 1.53 1.35 1.27 1.17 1.11 1.12 1.18 1.17 0.96 0.85 0.87 0.99 1.04 1.03 1.08 1.10 0.99 0.87 0.78 0.74 0.76 0.76 0.71
0.19 0.29 0.40 0.48 0.55 0.66 0.79 0.84 0.91 1.00 1.07 1.06 1.00 1.00 1.06 1.21 1.31 1.38 1.35 1.17 1.10 0.91 0.80 0.77 0.73 0.75 0.80 0.90 0.78 0.68 0.78 0.95 1.03 1.00 1.04 1.13 1.13 1.05 0.97 0.92 0.95 0.95 0.90

GEFSMW_prec_meanprecacc_120.txt.gz
Total_Precipitation_Accumulation
1.56 1.89 2.21 2.65 2.98 3.32 3.81 4.33 4.73 4.56 4.18 3.69 3.23 2.91 2.53 2.27 2.01 1.69 1.44 1.32 1.27 1.29 1.45 1.29 1.36 1.42 1.36 1.29 1.30 1.39 1.42 1.25 1.49 1.57 1.12 0.82 0.73 0.67 0.59 0.59 0.58 0.52 0.60
1.39 1.71 2.16 2.51 2.83 3.20 3.55 3.80 3.69 3.21 2.91 2.70 2.47 2.13 2.02 1.95 1.85 1.71 1.48 1.22 1.18 1.14 1.09 1.07 1.07 1.13 1.16 1.07 1.03 1.16 1.14 0.98 1.24 1.34 1.19 0.80 0.63 0.54 0.45 0.48 0.48 0.51 0.65
1.17 1.45 1.94 2.21 2.34 2.58 2.75 2.70 2.43 2.03 1.86 1.79 1.60 1.64 1.78 1.84 1.79 1.76 1.64 1.41 1.30 1.25 1.19 1.09 1.00 0.96 0.99 0.99 0.97 1.05 1.06 0.94 0.98 1.11 1.27 0.99 0.67 0.52 0.38 0.40 0.47 0.59 0.71
0.84 1.13 1.45 1.56 1.70 1.77 1.71 1.66 1.57 1.40 1.31 1.30 1.24 1.18 1.28 1.48 1.60 1.72 1.74 1.72 1.59 1.42 1.29 1.17 0.98 0.84 0.82 0.87 0.79 0.86 0.98 1.00 0.89 0.89 0.97 0.99 1.01 0.91 0.55 0.34 0.37 0.56 0.66
0.78 0.93 0.97 0.97 1.07 1.10 1.10 1.05 1.09 1.06 1.06 1.13 1.27 1.16 0.98 0.93 0.86 0.90 1.02 1.14 1.22 1.17 1.01 0.94 0.87 0.78 0.70 0.70 0.74 0.85 0.94 0.96 0.88 0.88 0.87 0.92 1.06 1.07 0.93 0.60 0.52 0.57 0.56
0.56 0.65 0.67 0.69 0.72 0.74 0.77 0.86 0.95 1.01 0.97 1.01 1.04 1.07 0.97 0.90 0.82 0.78 0.78 0.75 0.77 0.78 0.73 0.70 0.71 0.70 0.68 0.69 0.69 0.75 0.84 0.92 0.96 0.97 1.01 1.06 1.07 1.13 1.22 0.99 0.82 0.75 0.66
0.40 0.37 0.37 0.40 0.43 0.43 0.45 0.60 0.72 0.81 0.76 0.72 0.74 0.78 0.83 0.80 0.72 0.65 0.59 0.55 0.52 0.54 0.58 0.60 0.64 0.64 0.69 0.74 0.81 0.81 0.82 0.89 1.00 1.03 1.11 1.19 1.18 1.24 1.34 1.28 1.09 0.99 0.96
0.22 0.18 0.18 0.19 0.24 0.29 0.29 0.34 0.49 0.57 0.63 0.58 0.59 0.69 0.84 0.87 0.80 0.77 0.64 0.58 0.56 0.53 0.55 0.63 0.69 0.68 0.68 0.69 0.79 0.83 0.90 0.97 1.01 1.00 1.16 1.25 1.19 1.31 1.44 1.47 1.43 1.30 1.29
0.11 0.10 0.12 0.12 0.14 0.17 0.21 0.20 0.28 0.41 0.51 0.54 0.55 0.54 0.55 0.61 0.60 0.60 0.58 0.56 0.62 0.57 0.62 0.69 0.78 0.79 0.78 0.80 0.84 0.85 0.95 1.13 1.20 1.18 1.23 1.29 1.27 1.31 1.44 1.56 1.60 1.58 1.52
0.07 0.07 0.06 0.07 0.09 0.12 0.19 0.23 0.22 0.32 0.54 0.67 0.64 0.52 0.40 0.35 0.42 0.50 0.55 0.57 0.60 0.62 0.66 0.71 0.74 0.78 0.79 0.80 0.85 0.90 1.00 1.16 1.24 1.32 1.40 1.40 1.34 1.38 1.45 1.50 1.62 1.73 1.74
0.05 0.03 0.03 0.04 0.07 0.11 0.18 0.32 0.37 0.44 0.60 0.78 0.82 0.70 0.50 0.41 0.42 0.43 0.42 0.44 0.51 0.61 0.68 0.65 0.59 0.56 0.60 0.72 0.87 0.93 1.01 1.10 1.14 1.21 1.23 1.22 1.26 1.31 1.26 1.34 1.47 1.63 1.77
0.03 0.02 0.02 0.02 0.04 0.08 0.18 0.46 0.71 0.98 1.07 1.18 1.26 1.08 0.69 0.49 0.40 0.33 0.31 0.37 0.48 0.58 0.63 0.60 0.54 0.53 0.58 0.71 0.86 1.00 1.20 1.33 1.30 1.22 1.15 1.07 1.14 1.23 1.25 1.33 1.36 1.43 1.64
0.03 0.02 0.02 0.02 0.03 0.04 0.10 0.26 0.36 0.63 0.86 1.07 1.19 0.96 0.58 0.37 0.30 0.26 0.30 0.42 0.53 0.58 0.58 0.58 0.63 0.73 0.82 0.93 1.05 1.11 1.24 1.29 1.21 1.17 1.10 1.03 1.03 1.08 1.18 1.29 1.33 1.32 1.39
0.03 0.03 0.03 0.03 0.04 0.04 0.05 0.15 0.22 0.26 0.38 0.65 0.81 0.67 0.44 0.33 0.28 0.27 0.30 0.35 0.38 0.45 0.54 0.66 0.83 0.95 1.01 1.03 1.10 1.09 1.07 1.07 0.98 0.92 0.87 0.90 1.01 1.07 1.07 1.06 1.10 1.15 1.26
0.05 0.05 0.05 0.05 0.05 0.06 0.07 0.13 0.19 0.22 0.32 0.55 0.69 0.60 0.43 0.35 0.28 0.24 0.24 0.29 0.39 0.45 0.58 0.73 0.82 0.82 0.84 0.90 0.97 0.97 0.93 0.88 0.82 0.73 0.59 0.59 0.76 0.90 0.93 0.87 0.91 0.96 1.05
0.08 0.08 0.07 0.08 0.08 0.09 0.09 0.10 0.13 0.18 0.30 0.48 0.65 0.63 0.48 0.36 0.27 0.25 0.29 0.41 0.48 0.54 0.64 0.74 0.74 0.69 0.54 0.48 0.49 0.55 0.61 0.67 0.67 0.59 0.54 0.53 0.54 0.56 0.58 0.63 0.68 0.75 0.84
0.14 0.12 0.10 0.09 0.10 0.13 0.15 0.16 0.16 0.18 0.30 0.47 0.61 0.66 0.60 0.49 0.42 0.36 0.40 0.50 0.55 0.61 0.67 0.68 0.69 0.67 0.63 0.45 0.34 0.33 0.41 0.48 0.50 0.50 0.54 0.43 0.37 0.42 0.42 0.43 0.41 0.43 0.49
0.16 0.17 0.13 0.13 0.14 0.14 0.19 0.22 0.24 0.26 0.35 0.50 0.64 0.70 0.69 0.67 0.69 0.62 0.60 0.63 0.68 0.71 0.74 0.70 0.72 0.76 0.72 0.57 0.44 0.36 0.32 0.39 0.42 0.45 0.48 0.48 0.49 0.50 0.51 0.49 0.46 0.41 0.38
0.15 0.18 0.20 0.19 0.19 0.20 0.22 0.25 0.28 0.35 0.44 0.55 0.69 0.79 0.84 0.89 0.88 0.84 0.85 0.92 0.97 0.92 0.89 0.88 0.90 0.91 0.90 0.73 0.50 0.39 0.40 0.49 0.49 0.51 0.51 0.52 0.52 0.51 0.41 0.43 0.45 0.45 0.46
0.17 0.18 0.18 0.19 0.22 0.23 0.26 0.35 0.44 0.57 0.71 0.80 0.89 1.04 1.20 1.32 1.35 1.30 1.23 1.18 1.21 1.10 1.03 0.97 0.97 0.97 1.00 0.89 0.56 0.42 0.50 0.67 0.71 0.73 0.68 0.54 0.47 0.42 0.32 0.37 0.49 0.47 0.46
0.18 0.18 0.17 0.17 0.20 0.22 0.31 0.46 0.61 0.78 0.88 0.99 1.08 1.26 1.52 1.64 1.55 1.50 1.40 1.31 1.31 1.31 1.27 1.15 1.11 1.12 1.13 1.04 0.68 0.54 0.64 0.79 0.89 0.88 0.82 0.74 0.55 0.40 0.34 0.34 0.42 0.45 0.48
0.20 0.19 0.19 0.18 0.22 0.29 0.43 0.63 0.77 0.84 0.93 1.09 1.26 1.45 1.63 1.58 1.44 1.59 1.56 1.53 1.58 1.54 1.46 1.38 1.28 1.24 1.24 1.10 0.80 0.57 0.64 0.82 1.00 1.05 1.01 0.92 0.69 0.50 0.42 0.39 0.38 0.35 0.36
0.20 0.21 0.25 0.29 0.31 0.41 0.61 0.82 0.89 0.96 1.01 1.07 1.21 1.35 1.43 1.53 1.59 1.60 1.55 1.56 1.60 1.62 1.54 1.48 1.40 1.33 1.35 1.32 0.92 0.69 0.73 0.81 0.94 1.13 1.13 0.93 0.73 0.61 0.49 0.45 0.45 0.40 0.38
0.18 0.21 0.27 0.38 0.47 0.58 0.72 0.85 0.87 0.88 0.88 0.90 0.94 1.06 1.23 1.34 1.46 1.67 1.73 1.72 1.67 1.68 1.67 1.57 1.47 1.43 1.46 1.46 1.16 0.87 0.83 0.88 0.92 1.03 1.08 0.95 0.80 0.70 0.61 0.55 0.53 0.50 0.50
0.20 0.26 0.33 0.42 0.50 0.63 0.74 0.77 0.81 0.89 0.95 0.96 0.96 0.99 1.08 1.25 1.36 1.51 1.61 1.62 1.64 1.46 1.39 1.30 1.25 1.25 1.31 1.29 1.06 0.94 0.95 1.05 1.10 1.08 1.12 1.14 1.02 0.90 0.80 0.77 0.79 0.79 0.73
0.21 0.30 0.40 0.49 0.57 0.68 0.81 0.86 0.94 1.03 1.10 1.09 1.04 1.04 1.09 1.23 1.34 1.41 1.38 1.21 1.14 0.95 0.84 0.82 0.78 0.81 0.86 0.96 0.84 0.74 0.83 1.00 1.07 1.04 1.08 1.17 1.16 1.08 1.00 0.96 0.98 0.98 0.93

GEFSMW_prec_meanprecacc_126.txt.gz
Total_Precipitation_Accumulation
1.58 1.93 2.25 2.69 3.04 3.40 3.92 4.46 4.90 4.80 4.47 3.99 3.50 3.13 2.69 2.39 2.12 1.79 1.55 1.42 1.34 1.35 1.52 1.35 1.41 1.47 1.41 1.33 1.32 1.40 1.43 1.26 1.51 1.59 1.14 0.85 0.75 0.69 0.60 0.60 0.58 0.53 0.62
1.41 1.72 2.18 2.56 2.90 3.28 3.64 3.92 3.84 3.42 3.17 2.98 2.72 2.34 2.18 2.08 1.99 1.84 1.59 1.30 1.24 1.21 1.15 1.13 1.12 1.17 1.20 1.10 1.05 1.17 1.15 0.98 1.25 1.36 1.21 0.83 0.66 0.56 0.46 0.49 0.49 0.52 0.66
1.18 1.46 1.95 2.24 2.38 2.64 2.82 2.80 2.55 2.17 2.03 1.97 1.78 1.80 1.92 1.95 1.89 1.85 1.73 1.48 1.35 1.30 1.25 1.14 1.04 1.00 1.01 1.01 0.98 1.05 1.06 0.94 0.99 1.12 1.28 1.00 0.68 0.54 0.39 0.40 0.47 0.60 0.72
0.84 1.14 1.46 1.59 1.73 1.81 1.79 1.75 1.66 1.53 1.44 1.43 1.38 1.30 1.39 1.57 1.68 1.81 1.82 1.80 1.65 1.47 1.35 1.21 1.02 0.87 0.84 0.89 0.80 0.86 0.98 1.00 0.89 0.89 0.97 0.99 1.01 0.92 0.56 0.35 0.38 0.57 0.67
0.78 0.94 0.98 0.98 1.10 1.15 1.18 1.14 1.19 1.21 1.20 1.25 1.39 1.29 1.10 1.04 0.97 1.01 1.11 1.22 1.30 1.22 1.06 0.99 0.91 0.80 0.72 0.71 0.75 0.86 0.94 0.97 0.89 0.89 0.87 0.92 1.06 1.08 0.94 0.61 0.53 0.58 0.56
0.57 0.66 0.68 0.69 0.75 0.80 0.84 0.96 1.06 1.16 1.12 1.12 1.16 1.20 1.12 1.04 0.94 0.87 0.87 0.82 0.84 0.84 0.78 0.74 0.74 0.72 0.70 0.70 0.70 0.76 0.84 0.93 0.97 0.98 1.02 1.06 1.08 1.14 1.22 1.00 0.83 0.76 0.66
0.40 0.37 0.37 0.41 0.45 0.46 0.51 0.69 0.82 0.91 0.86 0.83 0.87 0.90 1.00 0.99 0.89 0.77 0.68 0.61 0.57 0.59 0.63 0.64 0.68 0.67 0.71 0.76 0.82 0.83 0.83 0.90 1.01 1.04 1.11 1.19 1.18 1.24 1.35 1.28 1.09 0.99 0.96
0.22 0.18 0.18 0.20 0.26 0.31 0.33 0.39 0.57 0.66 0.72 0.68 0.70 0.81 1.00 1.03 0.94 0.90 0.75 0.66 0.61 0.58 0.60 0.67 0.73 0.71 0.70 0.70 0.80 0.84 0.90 0.98 1.01 1.01 1.16 1.25 1.19 1.31 1.44 1.47 1.43 1.30 1.30
0.12 0.10 0.12 0.12 0.15 0.19 0.23 0.24 0.34 0.48 0.60 0.62 0.64 0.64 0.68 0.73 0.72 0.70 0.67 0.63 0.68 0.61 0.67 0.74 0.82 0.82 0.80 0.81 0.85 0.86 0.95 1.13 1.21 1.19 1.23 1.29 1.27 1.31 1.44 1.56 1.60 1.58 1.52
0.08 0.07 0.06 0.07 0.09 0.13 0.21 0.27 0.27 0.36 0.60 0.72 0.70 0.59 0.49 0.46 0.53 0.59 0.62 0.63 0.66 0.65 0.69 0.74 0.77 0.81 0.81 0.82 0.86 0.91 1.01 1.17 1.25 1.32 1.41 1.40 1.34 1.38 1.45 1.50 1.62 1.73 1.74
0.06 0.04 0.03 0.04 0.08 0.11 0.19 0.34 0.40 0.48 0.64 0.83 0.88 0.76 0.58 0.51 0.52 0.52 0.49 0.51 0.58 0.65 0.71 0.68 0.61 0.58 0.63 0.75 0.89 0.94 1.02 1.11 1.16 1.22 1.23 1.23 1.26 1.31 1.26 1.34 1.47 1.63 1.78
0.04 0.02 0.02 0.02 0.05 0.08 0.19 0.47 0.73 1.00 1.10 1.22 1.32 1.15 0.78 0.59 0.51 0.42 0.40 0.45 0.55 0.63 0.68 0.64 0.57 0.55 0.60 0.74 0.88 1.02 1.21 1.35 1.31 1.24 1.16 1.08 1.15 1.24 1.25 1.35 1.37 1.43 1.65
0.03 0.03 0.02 0.02 0.03 0.05 0.11 0.27 0.37 0.64 0.88 1.10 1.24 1.03 0.67 0.47 0.39 0.34 0.38 0.49 0.59 0.63 0.62 0.62 0.66 0.76 0.84 0.96 1.08 1.14 1.27 1.32 1.23 1.19 1.12 1.04 1.05 1.09 1.19 1.30 1.34 1.33 1.40
0.04 0.03 0.03 0.03 0.04 0.04 0.05 0.16 0.23 0.27 0.40 0.69 0.85 0.74 0.52 0.40 0.35 0.33 0.36 0.39 0.42 0.49 0.58 0.69 0.86 0.97 1.04 1.06 1.13 1.12 1.09 1.09 1.01 0.94 0.89 0.93 1.03 1.09 1.09 1.08 1.11 1.16 1.26
0.06 0.05 0.05 0.06 0.06 0.06 0.07 0.13 0.20 0.23 0.33 0.59 0.75 0.67 0.51 0.42 0.33 0.28 0.29 0.33 0.42 0.48 0.61 0.76 0.85 0.85 0.87 0.93 1.01 1.00 0.95 0.90 0.84 0.76 0.62 0.62 0.78 0.92 0.95 0.88 0.93 0.98 1.06
0.08 0.08 0.08 0.08 0.09 0.10 0.10 0.11 0.14 0.20 0.31 0.51 0.71 0.70 0.54 0.41 0.32 0.28 0.33 0.44 0.52 0.58 0.69 0.78 0.78 0.73 0.57 0.51 0.52 0.58 0.64 0.70 0.71 0.63 0.58 0.56 0.56 0.58 0.60 0.64 0.69 0.77 0.86
0.15 0.12 0.11 0.10 0.12 0.15 0.16 0.18 0.18 0.20 0.32 0.49 0.64 0.71 0.64 0.52 0.45 0.39 0.44 0.52 0.58 0.65 0.71 0.72 0.73 0.71 0.66 0.48 0.37 0.36 0.44 0.51 0.54 0.55 0.59 0.48 0.41 0.44 0.44 0.44 0.42 0.44 0.49
0.16 0.18 0.15 0.15 0.16 0.17 0.22 0.25 0.26 0.28 0.37 0.52 0.68 0.74 0.72 0.70 0.71 0.64 0.62 0.66 0.73 0.76 0.78 0.75 0.75 0.80 0.76 0.61 0.48 0.40 0.37 0.44 0.48 0.50 0.54 0.55 0.54 0.53 0.54 0.52 0.48 0.43 0.40
0.16 0.19 0.22 0.20 0.21 0.22 0.25 0.28 0.31 0.37 0.47 0.57 0.72 0.82 0.87 0.92 0.91 0.87 0.89 0.96 1.02 0.96 0.94 0.93 0.94 0.95 0.94 0.77 0.56 0.46 0.48 0.57 0.56 0.57 0.57 0.58 0.59 0.56 0.44 0.45 0.48 0.48 0.49
0.19 0.20 0.21 0.22 0.24 0.25 0.28 0.37 0.47 0.59 0.73 0.82 0.91 1.07 1.23 1.35 1.38 1.34 1.27 1.23 1.26 1.16 1.08 1.02 1.01 1.01 1.04 0.95 0.62 0.48 0.56 0.73 0.76 0.78 0.72 0.59 0.52 0.47 0.37 0.41 0.53 0.51 0.51
0.22 0.21 0.20 0.20 0.22 0.23 0.32 0.48 0.63 0.80 0.91 1.02 1.11 1.29 1.56 1.68 1.60 1.55 1.45 1.36 1.35 1.36 1.33 1.20 1.16 1.17 1.19 1.10 0.73 0.59 0.68 0.83 0.94 0.93 0.88 0.81 0.64 0.47 0.41 0.41 0.48 0.51 0.54
0.22 0.21 0.22 0.21 0.25 0.31 0.45 0.65 0.79 0.87 0.96 1.12 1.30 1.51 1.70 1.66 1.54 1.69 1.63 1.59 1.63 1.60 1.53 1.46 1.35 1.30 1.29 1.17 0.86 0.63 0.70 0.89 1.08 1.15 1.11 1.03 0.81 0.60 0.52 0.48 0.46 0.42 0.42
0.23 0.24 0.27 0.31 0.33 0.43 0.62 0.84 0.91 0.98 1.04 1.11 1.26 1.40 1.48 1.60 1.68 1.69 1.63 1.62 1.65 1.67 1.59 1.54 1.47 1.40 1.41 1.38 0.99 0.77 0.83 0.93 1.07 1.27 1.28 1.06 0.85 0.70 0.56 0.52 0.51 0.45 0.42
0.20 0.23 0.30 0.40 0.50 0.60 0.75 0.87 0.90 0.90 0.91 0.93 0.97 1.09 1.25 1.37 1.49 1.70 1.76 1.76 1.71 1.73 1.71 1.61 1.52 1.48 1.51 1.52 1.23 0.95 0.92 0.97 1.01 1.12 1.18 1.05 0.89 0.78 0.67 0.62 0.59 0.55 0.56
0.22 0.28 0.34 0.43 0.53 0.65 0.77 0.80 0.84 0.91 0.97 0.97 0.98 1.01 1.11 1.28 1.39 1.53 1.63 1.64 1.65 1.48 1.41 1.32 1.26 1.28 1.35 1.34 1.12 0.99 1.00 1.12 1.17 1.15 1.20 1.22 1.09 0.97 0.87 0.83 0.85 0.84 0.78
0.23 0.32 0.42 0.51 0.58 0.70 0.83 0.88 0.95 1.04 1.11 1.10 1.05 1.05 1.11 1.25 1.35 1.42 1.39 1.21 1.15 0.97 0.86 0.84 0.80 0.83 0.89 0.99 0.87 0.78 0.88 1.05 1.11 1.08 1.12 1.21 1.20 1.12 1.04 0.99 1.01 1.01 0.95

GEFSMW_prec_meanprecacc_132.txt.gz
Total_Precipitation_Accumulation
1.59 1.94 2.27 2.71 3.08 3.48 4.08 4.62 5.03 4.94 4.64 4.18 3.69 3.31 2.82 2.50 2.21 1.90 1.67 1.51 1.42 1.40 1.57 1.40 1.48 1.54 1.49 1.40 1.38 1.45 1.48 1.30 1.53 1.63 1.21 0.90 0.78 0.71 0.62 0.62 0.62 0.56 0.64
1.43 1.74 2.21 2.61 2.96 3.36 3.76 4.06 3.98 3.55 3.30 3.12 2.84 2.47 2.32 2.17 2.07 1.96 1.73 1.40 1.33 1.27 1.19 1.21 1.18 1.24 1.28 1.17 1.12 1.23 1.22 1.04 1.29 1.39 1.27 0.90 0.74 0.63 0.48 0.50 0.50 0.54 0.68
1.18 1.47 1.98 2.28 2.44 2.73 2.94 2.94 2.69 2.28 2.15 2.12 1.93 1.95 2.07 2.08 2.02 1.98 1.84 1.59 1.45 1.38 1.30 1.20 1.09 1.06 1.05 1.06 1.03 1.10 1.11 0.99 1.02 1.13 1.30 1.05 0.76 0.62 0.43 0.42 0.48 0.63 0.76
0.85 1.15 1.48 1.63 1.80 1.88 1.91 1.90 1.81 1.67 1.58 1.58 1.52 1.42 1.51 1.69 1.81 1.93 1.94 1.92 1.78 1.57 1.40 1.25 1.06 0.91 0.87 0.93 0.82 0.89 1.01 1.03 0.92 0.91 0.98 1.01 1.06 0.98 0.65 0.41 0.39 0.58 0.69
0.78 0.94 1.00 1.02 1.14 1.19 1.26 1.26 1.34 1.39 1.38 1.41 1.54 1.43 1.23 1.17 1.10 1.14 1.26 1.36 1.43 1.35 1.14 1.03 0.94 0.84 0.77 0.75 0.78 0.89 0.96 0.98 0.91 0.90 0.88 0.93 1.08 1.10 0.98 0.68 0.58 0.61 0.57
0.57 0.66 0.70 0.73 0.79 0.84 0.91 1.05 1.17 1.32 1.31 1.30 1.32 1.34 1.25 1.17 1.07 0.99 0.98 0.93 0.96 0.95 0.87 0.80 0.79 0.76 0.74 0.74 0.73 0.78 0.86 0.94 0.99 1.00 1.03 1.08 1.09 1.15 1.24 1.04 0.87 0.80 0.68
0.40 0.37 0.39 0.43 0.47 0.48 0.55 0.76 0.90 1.03 1.03 1.02 1.04 1.05 1.16 1.14 1.04 0.90 0.80 0.72 0.66 0.66 0.69 0.70 0.73 0.71 0.75 0.79 0.85 0.85 0.84 0.92 1.03 1.05 1.13 1.20 1.19 1.25 1.35 1.29 1.10 1.01 0.98
0.22 0.19 0.19 0.21 0.27 0.32 0.35 0.44 0.64 0.76 0.85 0.84 0.88 0.99 1.18 1.20 1.07 1.05 0.88 0.77 0.68 0.65 0.66 0.72 0.78 0.75 0.73 0.73 0.83 0.86 0.92 0.99 1.03 1.01 1.17 1.26 1.19 1.31 1.44 1.47 1.44 1.31 1.31
0.12 0.11 0.12 0.13 0.16 0.20 0.25 0.28 0.41 0.57 0.70 0.75 0.80 0.80 0.82 0.86 0.86 0.85 0.80 0.73 0.76 0.68 0.73 0.79 0.86 0.85 0.84 0.85 0.89 0.88 0.97 1.15 1.22 1.20 1.24 1.29 1.27 1.31 1.44 1.56 1.60 1.59 1.53
0.09 0.09 0.08 0.09 0.10 0.14 0.23 0.32 0.36 0.47 0.72 0.85 0.83 0.70 0.61 0.56 0.65 0.69 0.72 0.75 0.76 0.73 0.75 0.79 0.81 0.85 0.85 0.86 0.90 0.94 1.03 1.20 1.27 1.34 1.42 1.41 1.34 1.39 1.45 1.50 1.62 1.73 1.75
0.07 0.05 0.04 0.05 0.08 0.12 0.21 0.38 0.47 0.58 0.78 0.97 1.00 0.88 0.71 0.65 0.64 0.62 0.58 0.63 0.70 0.75 0.78 0.73 0.66 0.62 0.66 0.79 0.93 0.97 1.05 1.14 1.19 1.25 1.25 1.24 1.26 1.31 1.26 1.34 1.47 1.64 1.78
0.05 0.03 0.02 0.03 0.06 0.09 0.20 0.50 0.76 1.06 1.18 1.32 1.43 1.26 0.90 0.73 0.64 0.54 0.49 0.55 0.65 0.71 0.75 0.70 0.63 0.59 0.65 0.79 0.93 1.06 1.26 1.39 1.35 1.27 1.19 1.11 1.17 1.27 1.27 1.35 1.37 1.44 1.66
0.04 0.03 0.03 0.03 0.04 0.05 0.11 0.28 0.39 0.68 0.94 1.19 1.32 1.11 0.77 0.57 0.50 0.46 0.49 0.59 0.68 0.71 0.71 0.71 0.73 0.82 0.90 1.01 1.12 1.18 1.31 1.36 1.27 1.23 1.16 1.08 1.09 1.13 1.22 1.32 1.35 1.34 1.41
0.04 0.03 0.05 0.06 0.05 0.05 0.06 0.17 0.24 0.30 0.44 0.75 0.92 0.82 0.60 0.49 0.43 0.43 0.46 0.50 0.52 0.58 0.66 0.79 0.95 1.06 1.12 1.14 1.19 1.17 1.14 1.13 1.05 0.99 0.94 0.98 1.09 1.15 1.15 1.13 1.16 1.19 1.29
0.06 0.06 0.07 0.07 0.07 0.07 0.09 0.15 0.21 0.25 0.38 0.65 0.82 0.73 0.58 0.49 0.40 0.35 0.37 0.43 0.52 0.58 0.71 0.86 0.95 0.95 0.96 1.01 1.08 1.05 1.00 0.94 0.88 0.81 0.67 0.67 0.85 0.98 1.01 0.93 0.97 1.03 1.11
0.09 0.09 0.09 0.11 0.12 0.14 0.13 0.14 0.17 0.22 0.35 0.57 0.77 0.77 0.63 0.50 0.39 0.36 0.41 0.53 0.59 0.67 0.80 0.87 0.87 0.81 0.64 0.59 0.60 0.64 0.70 0.75 0.76 0.68 0.63 0.61 0.61 0.62 0.64 0.67 0.72 0.80 0.89
0.16 0.14 0.14 0.15 0.16 0.18 0.19 0.22 0.22 0.24 0.38 0.58 0.73 0.82 0.75 0.64 0.56 0.48 0.54 0.62 0.68 0.75 0.81 0.80 0.80 0.77 0.73 0.57 0.44 0.41 0.48 0.56 0.58 0.60 0.64 0.52 0.44 0.48 0.48 0.49 0.47 0.48 0.53
0.19 0.20 0.18 0.20 0.19 0.20 0.24 0.28 0.30 0.32 0.44 0.59 0.75 0.83 0.82 0.80 0.83 0.76 0.73 0.79 0.87 0.89 0.89 0.84 0.83 0.87 0.83 0.69 0.55 0.45 0.40 0.48 0.51 0.55 0.60 0.61 0.59 0.58 0.60 0.58 0.55 0.49 0.46
0.21 0.24 0.25 0.23 0.24 0.24 0.26 0.30 0.34 0.41 0.53 0.63 0.79 0.88 0.94 1.01 1.02 0.99 1.01 1.10 1.16 1.09 1.06 1.05 1.04 1.04 1.02 0.85 0.60 0.50 0.51 0.61 0.61 0.62 0.63 0.65 0.66 0.64 0.53 0.54 0.55 0.56 0.56
0.23 0.28 0.31 0.28 0.29 0.29 0.32 0.42 0.53 0.66 0.80 0.89 0.98 1.13 1.29 1.42 1.46 1.43 1.37 1.34 1.39 1.29 1.20 1.13 1.11 1.10 1.14 1.04 0.69 0.53 0.60 0.78 0.82 0.84 0.77 0.64 0.58 0.55 0.46 0.49 0.61 0.59 0.58
0.26 0.27 0.27 0.26 0.28 0.30 0.38 0.56 0.71 0.88 0.98 1.08 1.17 1.35 1.61 1.75 1.67 1.63 1.53 1.45 1.45 1.47 1.44 1.31 1.26 1.27 1.28 1.19 0.82 0.66 0.73 0.88 1.00 0.99 0.95 0.89 0.72 0.54 0.47 0.47 0.55 0.59 0.63
0.27 0.26 0.27 0.28 0.33 0.38 0.52 0.73 0.88 0.93 1.03 1.19 1.38 1.58 1.78 1.74 1.62 1.77 1.71 1.67 1.71 1.70 1.63 1.57 1.47 1.43 1.42 1.29 0.96 0.70 0.75 0.93 1.13 1.21 1.17 1.09 0.87 0.65 0.57 0.54 0.53 0.50 0.49
0.28 0.29 0.33 0.39 0.42 0.52 0.72 0.93 1.00 1.07 1.13 1.22 1.37 1.51 1.60 1.74 1.87 1.91 1.86 1.82 1.80 1.80 1.71 1.66 1.59 1.51 1.52 1.48 1.05 0.81 0.86 0.96 1.09 1.30 1.32 1.10 0.89 0.74 0.60 0.56 0.56 0.50 0.46
0.25 0.28 0.36 0.47 0.58 0.69 0.85 0.97 1.00 1.02 1.03 1.06 1.09 1.20 1.37 1.51 1.65 1.88 1.92 1.89 1.83 1.83 1.80 1.69 1.59 1.56 1.60 1.59 1.27 0.99 0.94 0.99 1.03 1.14 1.20 1.07 0.91 0.79 0.69 0.64 0.61 0.58 0.59
0.27 0.33 0.40 0.49 0.58 0.72 0.85 0.89 0.93 1.02 1.08 1.08 1.07 1.09 1.17 1.35 1.46 1.60 1.70 1.72 1.73 1.55 1.48 1.38 1.32 1.33 1.41 1.39 1.16 1.01 1.03 1.14 1.20 1.17 1.21 1.23 1.11 0.99 0.89 0.85 0.87 0.87 0.82
0.28 0.37 0.46 0.55 0.62 0.73 0.87 0.93 1.02 1.12 1.19 1.18 1.12 1.12 1.17 1.30 1.40 1.47 1.43 1.25 1.19 1.01 0.89 0.87 0.83 0.86 0.92 1.02 0.90 0.80 0.89 1.06 1.13 1.09 1.13 1.23 1.23 1.15 1.07 1.01 1.03 1.02 0.98